Weather Roundup
Issued by NWS Chicago, IL

Home | Current Version | Previous Version | Graphics & Text | Print | Product List | Glossary On
Versions: 1 2 3 4 5 6 7 8 9 10 11 12 13 14 15 16 17 18 19 20 21 22 23 24 25 26 27 28 29 30 31 32 33 34 35 36 37 38 39 40 41 42 43 44 45 46 47 48 49 50
000
NZUS59 KLOT 300012
HRRLOT

CHICAGO AREA WEATHER ROUNDUP
NATIONAL WEATHER SERVICE CHICAGO/ROMEOVILLE IL
700 PM CDT FRI MAY 29 2015

NOTE: "FAIR" INDICATES FEW OR NO CLOUDS BELOW 12,000 FEET WITH NO
SIGNIFICANT WEATHER AND/OR OBSTRUCTIONS TO VISIBILITY.

* THESE STATIONS ARE NOT UNDER NWS QUALITY CONTROL. THEY ALSO MAY NOT
  REPORT WEATHER SUCH AS PRECIPITATION OR FOG.

ILZ005-006-012>014-019>023-300100-
NORTHEAST ILLINOIS

CITY           SKY/WX    TMP DP  RH WIND       PRES   REMARKS
OHARE          PTSUNNY   80  62  54 SW10      29.90R HX  81
6HR MIN TEMP:  76; 6HR MAX TEMP:  81; 6HR PCP:  0.03;

MIDWAY         PTSUNNY   82  66  58 SW12      29.90R HX  84
6HR MIN TEMP:  78; 6HR MAX TEMP:  84; 6HR PCP:  0.01;

AURORA         MOSUNNY   80  63  55 SW9       29.92R HX  81
6HR MIN TEMP:  78; 6HR MAX TEMP:  83; 6HR PCP: TRACE;

LANSING*       CLOUDY    81  60  49 SW10      29.92R HX  81
JOLIET*        PTSUNNY   82  66  57 SW7       29.92R HX  84
WAUKEGAN       MOSUNNY   77  66  68 VRB5      29.89R
6HR MIN TEMP:  69; 6HR MAX TEMP:  81; 6HR PCP:  0.01;

DUPAGE AIRPORT MOSUNNY   79  63  57 SW12      29.91R HX  80
6HR MIN TEMP:  76; 6HR MAX TEMP:  82; 6HR PCP: TRACE;

WHEELING       MOSUNNY   81  61  50 SW9       29.91R HX  82
6HR MIN TEMP:  75; 6HR MAX TEMP:  83; 6HR PCP:  0.04;

KANKAKEE*      TSTM      68  66  93 S17G31    29.96R
MORRIS*        MOSUNNY   80  64  59 SW9       29.91R HX  81
LEWIS AIRPORT* MOSUNNY   80  62  55 W12       29.92R HX  81
NORTHERLY IS     N/A     81  63  54 SW6         N/A  HX  82
$$

WIZ051-052-058>065-066-070>072-300100-
SOUTHEAST WISCONSIN

CITY           SKY/WX    TMP DP  RH WIND       PRES   REMARKS
MILWAUKEE      PTSUNNY   73  67  81 VRB7      29.88S HAZE
6HR MIN TEMP:  71; 6HR MAX TEMP:  77; 6HR PCP:  0.11;

KENOSHA*       MOSUNNY   77  67  71 W12       29.90R
RACINE*        MOSUNNY   67  62  84 CALM      29.91S
BURLINGTON     SUNNY     72  65  80 SW6       29.89S
WAUKESHA       MOSUNNY   72  66  83 SW9       29.90S
WEST BEND      PTSUNNY   70  68  94 CALM      29.88S
$$

INZ001>003-010>013-019-020-300100-
NORTHWEST INDIANA

CITY           SKY/WX    TMP DP  RH WIND       PRES   REMARKS
GARY*          PTSUNNY   84  61  45 SW14      29.92R HX  84
MICHIGAN CITY* NOT AVBL
RENSSELAER*    NOT AVBL
VALPARAISO     MOSUNNY   82  61  48 SW12      29.93S HX  83
$$

LMZ740>746-300100-
SOUTHERN LAKE MICHIGAN

STATION/POSITION TIME  SKY/WX   TEMP WIND        PRES    VSBY
                                AIR  DIR/SP/G
                 (UTC)          (F)  (DEG/KT/KT) (MB)    (MI)
HARRISON CRIB    2300            78  200/ 15/ 21   N/A
BURNHAM HARBOR   0000            81  250/  4/ 16   N/A
CALUMET HARBOR   2300            78  210/  5/  8   N/A
BURNS HARBOR     2300            82  220/ 13/ 19 1013.2R
MICHIGAN CITY    2300            82  190/ 14/ 18   N/A
$$

ABBREVIATIONS USED IN REMARKS
   TC - TEMPERATURE IN CELSIUS
  WCI - WIND CHILL INDEX
   HX - HEAT INDEX
  VSB - VISIBILITY
$$


USA.gov is the U.S. government's official web portal to all federal, state and local government web resources and services.